Time,TemperatureF,DewpointF,PressureIn,WindDirection,WindDirectionDegrees,WindSpeedMPH,WindSpeedGustMPH,Humidity,HourlyPrecipIn,Conditions,Clouds,dailyrainin,SoftwareType,DateUTC
2013-04-21 00:09:00,38.3,28.0,30.41,North,355,1.0,-999.0,66,-99.99,,,0.00,weatherlink.com 1.10,2013-04-21 04:09:00,
2013-04-21 00:24:00,38.5,28.0,30.40,North,5,3.0,-999.0,65,-99.99,,,0.00,weatherlink.com 1.10,2013-04-21 04:24:00,
2013-04-21 00:39:00,38.4,27.0,30.41,North,5,0.0,-999.0,65,-99.99,,,0.00,weatherlink.com 1.10,2013-04-21 04:39:00,
2013-04-21 00:54:00,37.6,27.0,30.41,North,5,2.0,-999.0,67,-99.99,,,0.00,weatherlink.com 1.10,2013-04-21 04:54:00,
2013-04-21 01:09:00,37.3,28.0,30.41,ENE,71,3.0,-999.0,70,-99.99,,,0.00,weatherlink.com 1.10,2013-04-21 05:09:00,
2013-04-21 01:24:00,36.5,29.0,30.42,East,82,4.0,-999.0,75,-99.99,,,0.00,weatherlink.com 1.10,2013-04-21 05:24:00,
2013-04-21 01:39:00,35.8,29.0,30.42,ENE,75,3.0,-999.0,77,-99.99,,,0.00,weatherlink.com 1.10,2013-04-21 05:39:00,
2013-04-21 01:54:00,35.5,29.0,30.42,ENE,76,3.0,-999.0,78,-99.99,,,0.00,weatherlink.com 1.10,2013-04-21 05:54:00,
2013-04-21 02:09:00,35.0,29.0,30.42,ENE,74,2.0,-999.0,79,-99.99,,,0.00,weatherlink.com 1.10,2013-04-21 06:09:00,
2013-04-21 02:24:00,35.0,29.0,30.42,ENE,78,2.0,-999.0,78,-99.99,,,0.00,weatherlink.com 1.10,2013-04-21 06:24:00,
2013-04-21 02:39:00,35.0,29.0,30.42,East,88,3.0,-999.0,79,-99.99,,,0.00,weatherlink.com 1.10,2013-04-21 06:39:00,
2013-04-21 02:54:00,35.3,29.0,30.42,East,85,5.0,-999.0,78,-99.99,,,0.00,weatherlink.com 1.10,2013-04-21 06:54:00,
2013-04-21 03:09:00,35.3,29.0,30.42,East,94,6.0,-999.0,78,-99.99,,,0.00,weatherlink.com 1.10,2013-04-21 07:09:00,
2013-04-21 03:24:00,34.8,29.0,30.42,ESE,111,6.0,-999.0,78,-99.99,,,0.00,weatherlink.com 1.10,2013-04-21 07:24:00,
2013-04-21 03:39:00,34.4,29.0,30.43,East,89,3.0,-999.0,79,-99.99,,,0.00,weatherlink.com 1.10,2013-04-21 07:39:00,
2013-04-21 03:55:00,34.3,29.0,30.43,East,92,5.0,-999.0,80,-99.99,,,0.00,weatherlink.com 1.10,2013-04-21 07:55:00,
2013-04-21 04:10:00,34.2,28.0,30.43,East,95,2.0,-999.0,79,-99.99,,,0.00,weatherlink.com 1.10,2013-04-21 08:10:00,
2013-04-21 04:25:00,34.0,28.0,30.44,East,93,5.0,-999.0,80,-99.99,,,0.00,weatherlink.com 1.10,2013-04-21 08:25:00,
2013-04-21 04:40:00,33.9,28.0,30.44,East,94,4.0,-999.0,80,-99.99,,,0.00,weatherlink.com 1.10,2013-04-21 08:40:00,
2013-04-21 04:55:00,33.6,28.0,30.45,East,88,3.0,-999.0,80,-99.99,,,0.00,weatherlink.com 1.10,2013-04-21 08:55:00,
2013-04-21 05:10:00,33.5,28.0,30.45,ESE,109,5.0,-999.0,80,-99.99,,,0.00,weatherlink.com 1.10,2013-04-21 09:10:00,
2013-04-21 05:25:00,33.3,28.0,30.45,ESE,121,4.0,-999.0,80,-99.99,,,0.00,weatherlink.com 1.10,2013-04-21 09:25:00,
2013-04-21 05:40:00,33.1,28.0,30.45,East,93,2.0,-999.0,80,-99.99,,,0.00,weatherlink.com 1.10,2013-04-21 09:40:00,
2013-04-21 05:55:00,33.2,28.0,30.46,East,101,4.0,-999.0,80,-99.99,,,0.00,weatherlink.com 1.10,2013-04-21 09:55:00,
2013-04-21 06:10:00,33.2,27.0,30.47,East,94,4.0,-999.0,79,-99.99,,,0.00,weatherlink.com 1.10,2013-04-21 10:10:00,
2013-04-21 06:25:00,33.1,27.0,30.47,East,100,2.0,-999.0,79,-99.99,,,0.00,weatherlink.com 1.10,2013-04-21 10:25:00,
2013-04-21 06:40:00,32.9,27.0,30.48,ESE,105,4.0,-999.0,79,-99.99,,,0.00,weatherlink.com 1.10,2013-04-21 10:40:00,
2013-04-21 06:55:00,32.8,27.0,30.48,ESE,103,2.0,-999.0,79,-99.99,,,0.00,weatherlink.com 1.10,2013-04-21 10:55:00,
2013-04-21 07:10:00,32.7,27.0,30.48,East,98,4.0,-999.0,80,-99.99,,,0.00,weatherlink.com 1.10,2013-04-21 11:10:00,
2013-04-21 07:25:00,32.6,27.0,30.49,East,84,2.0,-999.0,80,-99.99,,,0.00,weatherlink.com 1.10,2013-04-21 11:25:00,
2013-04-21 07:40:00,33.3,27.0,30.49,ESE,109,4.0,-999.0,79,-99.99,,,0.00,weatherlink.com 1.10,2013-04-21 11:40:00,
2013-04-21 07:55:00,34.1,28.0,30.50,East,97,4.0,-999.0,78,-99.99,,,0.00,weatherlink.com 1.10,2013-04-21 11:55:00,
2013-04-21 08:10:00,34.9,28.0,30.50,ESE,120,2.0,-999.0,76,-99.99,,,0.00,weatherlink.com 1.10,2013-04-21 12:10:00,
2013-04-21 08:25:00,35.3,28.0,30.51,East,81,1.0,-999.0,75,-99.99,,,0.00,weatherlink.com 1.10,2013-04-21 12:25:00,
2013-04-21 08:40:00,35.9,29.0,30.51,East,98,2.0,-999.0,76,-99.99,,,0.00,weatherlink.com 1.10,2013-04-21 12:40:00,
2013-04-21 08:55:00,36.5,28.0,30.51,ESE,105,6.0,-999.0,71,-99.99,,,0.00,weatherlink.com 1.10,2013-04-21 12:55:00,
2013-04-21 09:10:00,37.2,28.0,30.52,SE,132,1.0,-999.0,70,-99.99,,,0.00,weatherlink.com 1.10,2013-04-21 13:10:00,
2013-04-21 09:25:00,37.8,30.0,30.52,East,98,5.0,-999.0,72,-99.99,,,0.00,weatherlink.com 1.10,2013-04-21 13:25:00,
2013-04-21 09:40:00,38.5,29.0,30.52,East,94,6.0,-999.0,68,-99.99,,,0.00,weatherlink.com 1.10,2013-04-21 13:40:00,
2013-04-21 09:55:00,39.1,30.0,30.52,East,96,5.0,-999.0,69,-99.99,,,0.00,weatherlink.com 1.10,2013-04-21 13:55:00,
2013-04-21 10:10:00,39.9,30.0,30.51,ESE,103,6.0,-999.0,69,-99.99,,,0.00,weatherlink.com 1.10,2013-04-21 14:10:00,
2013-04-21 10:25:00,41.1,30.0,30.51,East,92,8.0,-999.0,64,-99.99,,,0.00,weatherlink.com 1.10,2013-04-21 14:25:00,
2013-04-21 10:40:00,42.4,30.0,30.51,East,98,9.0,-999.0,63,-99.99,,,0.00,weatherlink.com 1.10,2013-04-21 14:40:00,
2013-04-21 10:55:00,43.7,30.0,30.51,SE,141,6.0,-999.0,60,-99.99,,,0.00,weatherlink.com 1.10,2013-04-21 14:55:00,
2013-04-21 11:10:00,44.4,31.0,30.51,SE,143,5.0,-999.0,60,-99.99,,,0.00,weatherlink.com 1.10,2013-04-21 15:10:00,
2013-04-21 11:25:00,44.6,31.0,30.51,East,94,5.0,-999.0,59,-99.99,,,0.00,weatherlink.com 1.10,2013-04-21 15:25:00,
2013-04-21 11:41:00,45.7,33.0,30.50,ESE,115,5.0,-999.0,62,-99.99,,,0.00,weatherlink.com 1.10,2013-04-21 15:41:00,
2013-04-21 11:56:00,45.6,31.0,30.51,SE,143,7.0,-999.0,57,-99.99,,,0.00,weatherlink.com 1.10,2013-04-21 15:56:00,
2013-04-21 12:11:00,46.0,33.0,30.50,SSE,155,5.0,-999.0,60,-99.99,,,0.00,weatherlink.com 1.10,2013-04-21 16:11:00,
2013-04-21 12:26:00,46.6,32.0,30.50,East,98,5.0,-999.0,58,-99.99,,,0.00,weatherlink.com 1.10,2013-04-21 16:26:00,
2013-04-21 12:41:00,47.1,33.0,30.49,East,98,8.0,-999.0,58,-99.99,,,0.00,weatherlink.com 1.10,2013-04-21 16:41:00,
2013-04-21 12:56:00,47.5,31.0,30.49,East,99,6.0,-999.0,54,-99.99,,,0.00,weatherlink.com 1.10,2013-04-21 16:56:00,
2013-04-21 13:11:00,48.3,33.0,30.48,East,99,9.0,-999.0,57,-99.99,,,0.00,weatherlink.com 1.10,2013-04-21 17:11:00,
2013-04-21 13:26:00,49.3,32.0,30.48,SE,144,5.0,-999.0,51,-99.99,,,0.00,weatherlink.com 1.10,2013-04-21 17:26:00,
2013-04-21 13:41:00,49.4,34.0,30.47,East,101,7.0,-999.0,55,-99.99,,,0.00,weatherlink.com 1.10,2013-04-21 17:41:00,
2013-04-21 13:56:00,50.1,34.0,30.46,East,97,7.0,-999.0,54,-99.99,,,0.00,weatherlink.com 1.10,2013-04-21 17:56:00,
2013-04-21 14:11:00,50.2,32.0,30.45,ESE,113,5.0,-999.0,50,-99.99,,,0.00,weatherlink.com 1.10,2013-04-21 18:11:00,
2013-04-21 14:26:00,50.6,35.0,30.45,SSE,149,5.0,-999.0,55,-99.99,,,0.00,weatherlink.com 1.10,2013-04-21 18:26:00,
2013-04-21 14:41:00,50.3,34.0,30.44,ESE,105,8.0,-999.0,53,-99.99,,,0.00,weatherlink.com 1.10,2013-04-21 18:41:00,
2013-04-21 14:56:00,50.9,36.0,30.43,East,94,8.0,-999.0,58,-99.99,,,0.00,weatherlink.com 1.10,2013-04-21 18:56:00,
2013-04-21 15:11:00,51.0,34.0,30.43,East,96,7.0,-999.0,52,-99.99,,,0.00,weatherlink.com 1.10,2013-04-21 19:11:00,
2013-04-21 15:41:00,51.4,35.0,30.41,East,79,7.0,-999.0,53,-99.99,,,0.00,weatherlink.com 1.10,2013-04-21 19:41:00,
2013-04-21 15:56:00,52.3,35.0,30.40,East,92,9.0,-999.0,53,-99.99,,,0.00,weatherlink.com 1.10,2013-04-21 19:56:00,
2013-04-21 16:11:00,52.4,35.0,30.39,ENE,77,7.0,-999.0,51,-99.99,,,0.00,weatherlink.com 1.10,2013-04-21 20:11:00,
2013-04-21 16:26:00,53.0,35.0,30.39,East,84,7.0,-999.0,51,-99.99,,,0.00,weatherlink.com 1.10,2013-04-21 20:26:00,
2013-04-21 16:41:00,53.4,35.0,30.38,SE,134,5.0,-999.0,51,-99.99,,,0.00,weatherlink.com 1.10,2013-04-21 20:41:00,
2013-04-21 16:56:00,53.3,38.0,30.37,East,96,5.0,-999.0,56,-99.99,,,0.00,weatherlink.com 1.10,2013-04-21 20:56:00,
2013-04-21 17:11:00,53.4,36.0,30.37,SE,138,2.0,-999.0,52,-99.99,,,0.00,weatherlink.com 1.10,2013-04-21 21:11:00,
2013-04-21 17:26:00,53.6,36.0,30.36,East,85,10.0,-999.0,52,-99.99,,,0.00,weatherlink.com 1.10,2013-04-21 21:26:00,
2013-04-21 17:41:00,54.1,37.0,30.36,ESE,119,4.0,-999.0,53,-99.99,,,0.00,weatherlink.com 1.10,2013-04-21 21:41:00,
2013-04-21 17:56:00,53.5,37.0,30.36,ESE,107,6.0,-999.0,55,-99.99,,,0.00,weatherlink.com 1.10,2013-04-21 21:56:00,
2013-04-21 18:11:00,54.1,38.0,30.36,SE,133,2.0,-999.0,55,-99.99,,,0.00,weatherlink.com 1.10,2013-04-21 22:11:00,
2013-04-21 18:26:00,53.8,37.0,30.36,ESE,107,4.0,-999.0,53,-99.99,,,0.00,weatherlink.com 1.10,2013-04-21 22:26:00,
2013-04-21 18:41:00,53.7,34.0,30.36,ESE,102,7.0,-999.0,48,-99.99,,,0.00,weatherlink.com 1.10,2013-04-21 22:41:00,
2013-04-21 18:56:00,53.8,34.0,30.36,SE,132,6.0,-999.0,48,-99.99,,,0.00,weatherlink.com 1.10,2013-04-21 22:56:00,
2013-04-21 19:11:00,53.2,33.0,30.36,East,101,5.0,-999.0,47,-99.99,,,0.00,weatherlink.com 1.10,2013-04-21 23:11:00,
2013-04-21 19:26:00,53.0,36.0,30.36,ESE,106,4.0,-999.0,53,-99.99,,,0.00,weatherlink.com 1.10,2013-04-21 23:26:00,
2013-04-21 19:41:00,52.5,36.0,30.35,ESE,105,6.0,-999.0,53,-99.99,,,0.00,weatherlink.com 1.10,2013-04-21 23:41:00,
2013-04-21 19:56:00,52.0,36.0,30.35,East,92,4.0,-999.0,55,-99.99,,,0.00,weatherlink.com 1.10,2013-04-21 23:56:00,
2013-04-21 20:11:00,51.0,36.0,30.35,East,100,5.0,-999.0,58,-99.99,,,0.00,weatherlink.com 1.10,2013-04-22 00:11:00,
2013-04-21 20:26:00,50.0,36.0,30.35,East,96,5.0,-999.0,59,-99.99,,,0.00,weatherlink.com 1.10,2013-04-22 00:26:00,
2013-04-21 20:41:00,49.1,37.0,30.35,East,94,2.0,-999.0,63,-99.99,,,0.00,weatherlink.com 1.10,2013-04-22 00:41:00,
2013-04-21 20:56:00,48.1,38.0,30.36,East,94,2.0,-999.0,69,-99.99,,,0.00,weatherlink.com 1.10,2013-04-22 00:56:00,
2013-04-21 21:11:00,47.2,39.0,30.36,East,94,2.0,-999.0,73,-99.99,,,0.00,weatherlink.com 1.10,2013-04-22 01:11:00,
2013-04-21 21:26:00,46.6,39.0,30.36,East,94,4.0,-999.0,75,-99.99,,,0.00,weatherlink.com 1.10,2013-04-22 01:26:00,
2013-04-21 21:41:00,46.2,39.0,30.36,East,88,2.0,-999.0,76,-99.99,,,0.00,weatherlink.com 1.10,2013-04-22 01:41:00,
2013-04-21 21:56:00,45.9,38.0,30.36,East,96,4.0,-999.0,75,-99.99,,,0.00,weatherlink.com 1.10,2013-04-22 01:56:00,
2013-04-21 22:11:00,45.0,39.0,30.36,East,94,2.0,-999.0,79,-99.99,,,0.00,weatherlink.com 1.10,2013-04-22 02:11:00,
2013-04-21 22:26:00,45.4,39.0,30.36,East,94,6.0,-999.0,79,-99.99,,,0.00,weatherlink.com 1.10,2013-04-22 02:26:00,
2013-04-21 22:41:00,45.2,39.0,30.36,East,84,5.0,-999.0,79,-99.99,,,0.00,weatherlink.com 1.10,2013-04-22 02:41:00,
2013-04-21 22:56:00,44.7,39.0,30.36,East,89,3.0,-999.0,80,-99.99,,,0.00,weatherlink.com 1.10,2013-04-22 02:56:00,
2013-04-21 23:11:00,43.8,39.0,30.35,East,82,3.0,-999.0,82,-99.99,,,0.00,weatherlink.com 1.10,2013-04-22 03:11:00,
2013-04-21 23:26:00,43.7,38.0,30.35,East,87,4.0,-999.0,81,-99.99,,,0.00,weatherlink.com 1.10,2013-04-22 03:26:00,
2013-04-21 23:41:00,43.3,38.0,30.35,East,87,3.0,-999.0,82,-99.99,,,0.00,weatherlink.com 1.10,2013-04-22 03:41:00,
2013-04-21 23:56:00,43.4,37.0,30.34,East,96,4.0,-999.0,79,-99.99,,,0.00,weatherlink.com 1.10,2013-04-22 03:56:00,